| time (UTC) | temp F | wind direction | speed MPH | gust MPH | rain 1hr in | rain 24hr in | rain mn in | humidity % | barometer mb |
| 20260510153326 | 79 | 213 | 6.0 | 12.0 | 0.00 | 0.00 | 0.00 | 62 | 1012.4 |
| 20260510151841 | 78 | 190 | 6.0 | 13.0 | 0.00 | 0.00 | 0.00 | 62 | 1012.5 |
| 20260510150353 | 77 | 195 | 4.0 | 10.0 | 0.00 | 0.00 | 0.00 | 65 | 1012.6 |
| 20260510144826 | 77 | 194 | 3.0 | 6.0 | 0.00 | 0.00 | 0.00 | 66 | 1012.9 |
| 20260510143317 | 75 | 193 | 2.0 | 6.0 | 0.00 | 0.00 | 0.00 | 68 | 1012.9 |
| 20260510141851 | 74 | 183 | 4.0 | 9.0 | 0.00 | 0.00 | 0.00 | 70 | 1012.6 |
| 20260510140321 | 73 | 191 | 2.0 | 6.0 | 0.00 | 0.00 | 0.00 | 72 | 1012.6 |
| 20260510134814 | 72 | 182 | 0.0 | 5.0 | 0.00 | 0.00 | 0.00 | 74 | 1012.5 |
| 20260510133327 | 71 | 97 | 0.0 | 6.0 | 0.00 | 0.00 | 0.00 | 75 | 1012.3 |
| 20260510131820 | 70 | 144 | 1.0 | 4.0 | 0.00 | 0.00 | 0.00 | 74 | 1012.0 |
| 20260510130318 | 70 | 99 | 1.0 | 6.0 | 0.00 | 0.00 | 0.00 | 74 | 1012.1 |
| 20260510124832 | 70 | 184 | 3.0 | 6.0 | 0.00 | 0.00 | 0.00 | 74 | 1011.7 |
| 20260510123341 | 69 | 182 | 1.0 | 4.0 | 0.00 | 0.00 | 0.00 | 75 | 1011.9 |
| 20260510121828 | 69 | 182 | 3.0 | 6.0 | 0.00 | 0.00 | 0.00 | 74 | 1011.6 |
| 20260510120321 | 69 | 188 | 0.0 | 4.0 | 0.00 | 0.00 | 0.00 | 71 | 1011.7 |
| 20260510114817 | 70 | 235 | 0.0 | 1.0 | 0.00 | 0.00 | 0.00 | 70 | 1011.4 |
| 20260510113331 | 70 | 235 | 1.0 | 12.0 | 0.00 | 0.00 | 0.00 | 70 | 1011.0 |
| 20260510111823 | 70 | 132 | 1.0 | 3.0 | 0.00 | 0.00 | 0.00 | 70 | 1010.7 |
| 20260510110336 | 71 | 60 | 5.0 | 8.0 | 0.00 | 0.00 | 0.00 | 69 | 1010.3 |
| 20260510104825 | 71 | 202 | 8.0 | 14.0 | 0.00 | 0.00 | 0.00 | 69 | 1008.4 |
| 20260510103321 | 71 | 213 | 8.0 | 13.0 | 0.00 | 0.00 | 0.00 | 69 | 1008.2 |
| 20260510101815 | 71 | 221 | 8.0 | 14.0 | 0.00 | 0.00 | 0.00 | 68 | 1008.1 |
| 20260510100328 | 71 | 203 | 9.0 | 15.0 | 0.00 | 0.00 | 0.00 | 67 | 1008.0 |
| 20260510094843 | 72 | 196 | 9.0 | 17.0 | 0.00 | 0.00 | 0.00 | 66 | 1008.1 |
| 20260510093316 | 72 | 224 | 8.0 | 12.0 | 0.00 | 0.00 | 0.00 | 65 | 1008.0 |
| 20260510091850 | 73 | 200 | 7.0 | 13.0 | 0.00 | 0.00 | 0.00 | 64 | 1007.9 |
| 20260510090323 | 73 | 211 | 7.0 | 16.0 | 0.00 | 0.00 | 0.00 | 64 | 1007.7 |
| 20260510084815 | 73 | 209 | 7.0 | 10.0 | 0.00 | 0.00 | 0.00 | 64 | 1007.6 |
| 20260510083348 | 73 | 211 | 6.0 | 14.0 | 0.00 | 0.00 | 0.00 | 64 | 1007.5 |
| 20260510081844 | 73 | 215 | 7.0 | 18.0 | 0.00 | 0.00 | 0.00 | 64 | 1007.6 |
| 20260510080316 | 74 | 205 | 7.0 | 17.0 | 0.00 | 0.00 | 0.00 | 64 | 1007.6 |
| 20260510074823 | 74 | 217 | 7.0 | 17.0 | 0.00 | 0.00 | 0.00 | 63 | 1007.5 |
| 20260510073318 | 74 | 217 | 8.0 | 18.0 | 0.00 | 0.00 | 0.00 | 63 | 1007.6 |
| 20260510071828 | 74 | 189 | 7.0 | 13.0 | 0.00 | 0.00 | 0.00 | 63 | 1007.8 |
| 20260510070324 | 75 | 204 | 6.0 | 16.0 | 0.00 | 0.00 | 0.00 | 62 | 1008.0 |
| 20260510064818 | 75 | 214 | 8.0 | 16.0 | 0.00 | 0.00 | 0.00 | 60 | 1007.9 |
| 20260510063351 | 75 | 221 | 8.0 | 14.0 | 0.00 | 0.00 | 0.00 | 59 | 1008.0 |
| 20260510061844 | 73 | 195 | 7.0 | 13.0 | 0.00 | 0.00 | 0.00 | 60 | 1008.1 |
| 20260510060331 | 74 | 216 | 6.0 | 11.0 | 0.00 | 0.00 | 0.00 | 60 | 1008.1 |
| 20260510054825 | 73 | 199 | 7.0 | 13.0 | 0.00 | 0.00 | 0.00 | 61 | 1008.1 |
| 20260510053317 | 74 | 216 | 5.0 | 13.0 | 0.00 | 0.00 | 0.00 | 60 | 1008.1 |
| 20260510051827 | 75 | 215 | 7.0 | 12.0 | 0.00 | 0.00 | 0.00 | 58 | 1008.1 |
| 20260510050319 | 75 | 191 | 6.0 | 13.0 | 0.00 | 0.00 | 0.00 | 57 | 1008.1 |
| 20260510044824 | 75 | 188 | 7.0 | 14.0 | 0.00 | 0.00 | 0.00 | 57 | 1008.2 |
| 20260510043318 | 75 | 186 | 6.0 | 11.0 | 0.00 | 0.00 | 0.00 | 56 | 1008.2 |
| 20260510041830 | 75 | 200 | 5.0 | 12.0 | 0.00 | 0.00 | 0.00 | 56 | 1008.2 |
| 20260510040325 | 76 | 198 | 6.0 | 13.0 | 0.00 | 0.00 | 0.00 | 53 | 1008.2 |
| 20260510034819 | 76 | 215 | 5.0 | 11.0 | 0.00 | 0.00 | 0.00 | 52 | 1008.2 |
| 20260510033317 | 76 | 193 | 5.0 | 12.0 | 0.00 | 0.00 | 0.00 | 50 | 1008.2 |
| 20260510031828 | 76 | 200 | 5.0 | 12.0 | 0.00 | 0.00 | 0.00 | 47 | 1008.2 |
| 20260510030323 | 77 | 188 | 5.0 | 10.0 | 0.00 | 0.00 | 0.00 | 45 | 1008.2 |
| 20260510024816 | 78 | 202 | 3.0 | 6.0 | 0.00 | 0.00 | 0.00 | 43 | 1008.2 |
| 20260510023330 | 80 | 188 | 3.0 | 11.0 | 0.00 | 0.00 | 0.00 | 40 | 1008.0 |
| 20260510021821 | 80 | 184 | 3.0 | 8.0 | 0.00 | 0.00 | 0.00 | 39 | 1007.8 |
| 20260510020315 | 81 | 192 | 3.0 | 8.0 | 0.00 | 0.00 | 0.00 | 37 | 1007.7 |
| 20260510014849 | 82 | 194 | 3.0 | 6.0 | 0.00 | 0.00 | 0.00 | 35 | 1007.4 |
| 20260510013321 | 83 | 190 | 3.0 | 8.0 | 0.00 | 0.00 | 0.00 | 33 | 1007.3 |
| 20260510011834 | 85 | 188 | 2.0 | 5.0 | 0.00 | 0.00 | 0.00 | 31 | 1007.3 |
| 20260510010324 | 86 | 184 | 2.0 | 6.0 | 0.00 | 0.00 | 0.00 | 29 | 1007.3 |
| 20260510004819 | 87 | 203 | 3.0 | 7.0 | 0.00 | 0.00 | 0.00 | 27 | 1007.3 |
| 20260510003332 | 88 | 197 | 3.0 | 8.0 | 0.00 | 0.00 | 0.00 | 27 | 1007.3 |
| 20260510001846 | 89 | 191 | 4.0 | 9.0 | 0.00 | 0.00 | 0.00 | 25 | 1007.3 |
| 20260510000314 | 90 | 176 | 3.0 | 8.0 | 0.00 | 0.00 | 0.00 | 24 | 1007.3 |
| 20260509234827 | 90 | 192 | 5.0 | 8.0 | 0.00 | 0.00 | 0.00 | 25 | 1007.4 |
| 20260509233342 | 90 | 192 | 2.0 | 7.0 | 0.00 | 0.00 | 0.00 | 25 | 1007.4 |
| 20260509231831 | 91 | 212 | 4.0 | 13.0 | 0.00 | 0.00 | 0.00 | 24 | 1007.5 |
| 20260509230341 | 91 | 195 | 4.0 | 10.0 | 0.00 | 0.00 | 0.00 | 24 | 1007.5 |
| 20260509224827 | 91 | 200 | 4.0 | 9.0 | 0.00 | 0.00 | 0.00 | 24 | 1007.6 |
| 20260509223319 | 92 | 214 | 5.0 | 9.0 | 0.00 | 0.00 | 0.00 | 24 | 1007.6 |
| 20260509221815 | 92 | 190 | 3.0 | 10.0 | 0.00 | 0.00 | 0.00 | 24 | 1007.6 |
| 20260509220328 | 92 | 193 | 5.0 | 12.0 | 0.00 | 0.00 | 0.00 | 24 | 1007.6 |
| 20260509214838 | 91 | 184 | 4.0 | 14.0 | 0.00 | 0.00 | 0.00 | 28 | 1007.6 |
| 20260509213331 | 92 | 167 | 4.0 | 9.0 | 0.00 | 0.00 | 0.00 | 28 | 1007.8 |
| 20260509211822 | 92 | 196 | 5.0 | 13.0 | 0.00 | 0.00 | 0.00 | 26 | 1008.0 |
| 20260509210316 | 91 | 190 | 4.0 | 9.0 | 0.00 | 0.00 | 0.00 | 28 | 1008.2 |
| 20260509204830 | 92 | 207 | 5.0 | 12.0 | 0.00 | 0.00 | 0.00 | 28 | 1008.4 |
| 20260509203324 | 91 | 221 | 4.0 | 7.0 | 0.00 | 0.00 | 0.00 | 29 | 1008.7 |
| 20260509201814 | 91 | 222 | 3.0 | 12.0 | 0.00 | 0.00 | 0.00 | 30 | 1008.8 |
| 20260509200348 | 91 | 188 | 2.0 | 7.0 | 0.00 | 0.00 | 0.00 | 28 | 1009.0 |
| 20260509194824 | 90 | 208 | 5.0 | 11.0 | 0.00 | 0.00 | 0.00 | 29 | 1009.2 |
| 20260509193317 | 90 | 219 | 4.0 | 10.0 | 0.00 | 0.00 | 0.00 | 32 | 1009.5 |
| 20260509191816 | 90 | 181 | 4.0 | 8.0 | 0.00 | 0.00 | 0.00 | 35 | 1009.6 |
| 20260509190328 | 90 | 194 | 2.0 | 10.0 | 0.00 | 0.00 | 0.00 | 37 | 1009.7 |
| 20260509184824 | 89 | 188 | 5.0 | 7.0 | 0.00 | 0.00 | 0.00 | 36 | 1009.8 |
| 20260509183353 | 88 | 191 | 2.0 | 10.0 | 0.00 | 0.00 | 0.00 | 38 | 1010.0 |
| 20260509181827 | 87 | 234 | 6.0 | 8.0 | 0.00 | 0.00 | 0.00 | 38 | 1010.2 |
| 20260509180318 | 87 | 182 | 6.0 | 11.0 | 0.00 | 0.00 | 0.00 | 39 | 1010.4 |
| 20260509174832 | 87 | 226 | 5.0 | 11.0 | 0.00 | 0.00 | 0.00 | 40 | 1010.6 |
| 20260509173324 | 86 | 177 | 4.0 | 10.0 | 0.00 | 0.00 | 0.00 | 42 | 1010.7 |
| 20260509171819 | 85 | 207 | 3.0 | 8.0 | 0.00 | 0.00 | 0.00 | 44 | 1011.0 |
| 20260509170330 | 84 | 221 | 6.0 | 8.0 | 0.00 | 0.00 | 0.00 | 45 | 1011.1 |
| 20260509164825 | 83 | 231 | 5.0 | 8.0 | 0.00 | 0.00 | 0.00 | 47 | 1011.1 |
| 20260509163318 | 82 | 224 | 6.0 | 9.0 | 0.00 | 0.00 | 0.00 | 50 | 1011.2 |
| 20260509161832 | 81 | 232 | 5.0 | 15.0 | 0.00 | 0.00 | 0.00 | 52 | 1011.2 |
| 20260509160326 | 80 | 216 | 6.0 | 10.0 | 0.00 | 0.00 | 0.00 | 56 | 1011.1 |
| 20260509154819 | 79 | 222 | 5.0 | 10.0 | 0.00 | 0.00 | 0.00 | 57 | 1011.1 |